CW9546 Weather Reports


Display with metric or nautical units.
time (UTC)temp
F
wind
direction
speed
MPH
gust
MPH
rain 1hr
in
rain 24hr
in
rain mn
in
humidity
%
barometer
mb
20190223213032 40 60 1.0 0.0 0.00 0.00 0.04 91 1019.3
20190223212044 40 26 1.0 0.0 0.00 0.00 0.04 92 1019.6
20190223211042 39 80 1.0 0.0 0.00 0.00 0.03 91 1019.6
20190223210051 39 120 1.0 0.0 0.00 0.00 0.02 91 1019.6
20190223205042 40 86 1.0 0.0 0.00 0.00 0.01 90 1019.7
20190223204035 39 98 2.0 0.0 0.00 0.00 0.01 88 1019.7
20190223202039 40 193 2.0 0.0 0.00 0.00 0.01 89 1019.7
20190223201038 40 132 1.0 0.0 0.00 0.00 0.01 89 1019.7
20190223200039 40 210 2.0 0.0 0.00 0.00 0.00 86 1019.7
20190223195033 40 148 1.0 0.0 0.00 0.00 0.00 86 1019.7
20190223194045 40 179 2.0 0.0 0.00 0.00 0.00 87 1019.7
20190223193037 41 151 1.0 0.0 0.00 0.00 0.00 83 1019.7
20190223192033 41 198 1.0 0.0 0.00 0.00 0.00 85 1019.7
20190223191045 41 159 2.0 0.0 0.00 0.00 0.00 84 1019.7
20190223190047 40 139 2.0 0.0 0.00 0.00 0.00 83 1019.7
20190223185041 40 218 2.0 0.0 0.00 0.00 0.00 85 1019.7
20190223184033 40 144 3.0 0.0 0.00 0.00 0.00 84 1019.7
20190223183048 40 139 2.0 0.0 0.00 0.00 0.00 86 1019.6
20190223182040 40 116 2.0 0.0 0.00 0.00 0.00 86 1019.7
20190223181051 39 160 2.0 0.0 0.00 0.00 0.00 88 1019.6
20190223180033 39 134 2.0 0.0 0.00 0.00 0.00 89 1019.7
20190223175049 39 96 2.0 0.0 0.00 0.00 0.00 89 1019.6
20190223174044 38 141 1.0 0.0 0.00 0.00 0.00 90 1019.6
20190223173050 38 136 2.0 0.0 0.00 0.00 0.00 89 1019.5
20190223172041 38 108 2.0 0.0 0.00 0.00 0.00 91 1019.3
20190223171048 38 91 1.0 0.0 0.00 0.00 0.00 92 1019.3
20190223170044 38 187 1.0 0.0 0.00 0.00 0.00 93 1019.2
20190223165039 37 151 1.0 0.0 0.00 0.00 0.00 94 1019.2
20190223164034 36 169 1.0 0.0 0.00 0.00 0.00 96 1019.2
20190223162051 36 144 0.0 0.0 0.00 0.00 0.00 98 1019.1
20190223161042 36 144 0.0 0.0 0.00 0.00 0.00 97 1019.1
20190223160031 35 144 0.0 0.0 0.00 0.00 0.00 97 1019.0
20190223155045 35 144 0.0 0.0 0.00 0.00 0.00 97 1018.8
20190223154041 35 148 0.0 0.0 0.00 0.00 0.00 97 1018.8
20190223153052 35 148 0.0 0.0 0.00 0.00 0.00 97 1018.6
20190223152044 35 149 0.0 0.0 0.00 0.00 0.00 97 1018.6
20190223151039 35 149 0.0 0.0 0.00 0.00 0.00 97 1018.6
20190223150045 35 149 0.0 0.0 0.00 0.00 0.00 97 1018.6
20190223145044 35 149 1.0 0.0 0.00 0.00 0.00 97 1018.5
20190223144035 35 149 1.0 0.0 0.00 0.00 0.00 96 1018.5
20190223143049 35 197 0.0 0.0 0.00 0.00 0.00 97 1018.6
20190223142044 35 184 0.0 0.0 0.00 0.00 0.00 97 1018.5
20190223141041 35 139 0.0 0.0 0.00 0.00 0.00 97 1018.5
20190223140029 35 139 1.0 0.0 0.00 0.00 0.00 97 1018.5
20190223135044 35 137 0.0 0.0 0.00 0.00 0.00 97 1018.3
20190223134036 35 82 0.0 0.0 0.00 0.00 0.00 97 1018.3
20190223133033 35 82 0.0 0.0 0.00 0.00 0.00 97 1018.2
20190223132044 35 152 1.0 0.0 0.00 0.00 0.00 97 1018.1
20190223131036 35 91 1.0 0.0 0.00 0.00 0.00 96 1018.1
20190223125039 35 129 0.0 0.0 0.00 0.00 0.00 97 1018.0
20190223124038 35 129 0.0 0.0 0.00 0.00 0.00 97 1018.0
20190223123030 35 129 1.0 0.0 0.00 0.00 0.00 97 1017.9
20190223122044 35 134 0.0 0.0 0.00 0.00 0.00 97 1017.8
20190223121036 35 131 1.0 0.0 0.00 0.00 0.00 97 1017.8
20190223120037 35 165 0.0 0.0 0.00 0.00 0.00 98 1017.8
20190223115036 35 165 1.0 0.0 0.00 0.00 0.00 98 1017.7
20190223114047 35 142 0.0 0.0 0.00 0.00 0.00 99 1017.7
20190223113037 34 142 0.0 0.0 0.00 0.00 0.00 99 1017.6
20190223112032 34 142 0.0 0.0 0.00 0.00 0.00 99 1017.6
20190223111044 34 142 0.0 0.0 0.00 0.00 0.00 99 1017.6
20190223110050 34 142 0.0 0.0 0.00 0.00 0.00 99 1017.6
20190223105041 34 142 0.0 0.0 0.00 0.00 0.00 99 1017.5
20190223104052 34 142 0.0 0.0 0.00 0.00 0.00 99 1017.5
20190223103044 34 142 1.0 0.0 0.00 0.00 0.00 99 1017.6
20190223102034 35 142 0.0 0.0 0.00 0.00 0.00 98 1017.6
20190223101050 35 142 0.0 0.0 0.00 0.00 0.00 98 1017.6
20190223100031 35 142 0.0 0.0 0.00 0.00 0.00 98 1017.5
20190223095025 35 142 0.0 0.0 0.00 0.00 0.00 98 1017.3
20190223094043 35 142 0.0 0.0 0.00 0.00 0.00 98 1017.3
20190223093039 35 142 0.0 0.0 0.00 0.00 0.00 98 1017.1
20190223092035 35 142 1.0 0.0 0.00 0.00 0.00 97 1017.0
20190223091047 35 142 0.0 0.0 0.00 0.00 0.00 97 1017.0
20190223090049 35 118 1.0 0.0 0.00 0.00 0.00 97 1016.9
20190223085041 35 118 1.0 0.0 0.00 0.00 0.00 98 1016.8
20190223084033 35 164 1.0 0.0 0.00 0.00 0.00 99 1016.8
20190223083051 34 156 0.0 0.0 0.00 0.00 0.00 99 1016.7
20190223082043 34 139 0.0 0.0 0.00 0.00 0.00 99 1016.6
20190223081034 34 139 0.0 0.0 0.00 0.00 0.00 99 1016.6
20190223080037 34 120 0.0 0.0 0.00 0.00 0.23 99 1016.5
20190223075048 34 120 0.0 0.0 0.00 0.00 0.23 99 1016.5
20190223074047 34 123 1.0 0.0 0.00 0.00 0.23 99 1016.5
20190223073039 34 106 0.0 0.0 0.00 0.00 0.23 99 1016.4
20190223072030 34 106 0.0 0.0 0.00 0.00 0.23 99 1016.2
20190223071049 34 106 0.0 0.0 0.00 0.00 0.23 99 1016.2
20190223070029 34 106 0.0 0.0 0.00 0.00 0.23 99 1016.0
20190223065048 34 106 0.0 0.0 0.00 0.00 0.23 99 1016.0
20190223064040 33 106 0.0 0.0 0.00 0.00 0.23 99 1016.0
20190223063031 33 106 0.0 0.0 0.00 0.00 0.23 99 1015.9
20190223062025 33 106 0.0 0.0 0.00 0.00 0.23 99 1015.9
20190223061045 34 106 0.0 0.0 0.00 0.00 0.23 98 1015.9
20190223060052 34 106 1.0 0.0 0.00 0.00 0.23 98 1015.5
20190223055044 33 95 1.0 0.0 0.00 0.00 0.23 98 1015.5
20190223054037 34 67 1.0 0.0 0.00 0.00 0.23 98 1015.5
20190223053049 35 124 1.0 0.0 0.00 0.00 0.23 97 1015.4
20190223052041 35 139 1.0 0.0 0.00 0.00 0.23 98 1015.1
20190223051035 35 162 1.0 0.0 0.00 0.00 0.23 98 1015.1
20190223050041 35 145 2.0 0.0 0.00 0.00 0.23 98 1015.1
20190223045033 35 111 2.0 0.0 0.00 0.00 0.23 98 1015.1
20190223044047 35 189 1.0 0.0 0.00 0.00 0.23 98 1015.1
20190223043038 35 210 1.0 0.0 0.00 0.00 0.23 99 1015.0
20190223042032 34 128 1.0 0.0 0.00 0.00 0.23 98 1014.9
20190223041051 35 359 1.0 0.0 0.00 0.00 0.23 98 1014.9
20190223040033 35 79 2.0 0.0 0.00 0.00 0.23 98 1014.8
20190223035047 35 138 1.0 0.0 0.00 0.00 0.23 99 1015.0
20190223034039 34 54 0.0 0.0 0.00 0.00 0.23 98 1014.9
20190223032047 35 54 0.0 0.0 0.00 0.00 0.23 98 1014.7
20190223031037 35 122 1.0 0.0 0.00 0.00 0.23 98 1014.7
20190223030043 35 114 1.0 0.0 0.00 0.00 0.23 98 1014.5
20190223025034 34 69 1.0 0.0 0.00 0.00 0.23 98 1014.3
20190223024050 35 83 1.0 0.0 0.00 0.00 0.23 98 1014.4
20190223023041 34 129 0.0 0.0 0.00 0.00 0.23 98 1014.2
20190223022035 34 124 1.0 0.0 0.00 0.00 0.23 98 1014.2
20190223021029 34 119 0.0 0.0 0.00 0.00 0.23 98 1014.2
20190223020039 34 119 0.0 0.0 0.00 0.00 0.23 98 1013.9
20190223015036 34 119 1.0 0.0 0.00 0.00 0.23 98 1013.8
20190223014048 34 115 1.0 0.0 0.00 0.00 0.23 98 1013.8
20190223013039 34 136 1.0 0.0 0.00 0.00 0.23 98 1013.8
20190223012034 34 137 1.0 0.0 0.00 0.00 0.23 98 1013.9
20190223011046 34 136 1.0 0.0 0.00 0.00 0.23 98 1013.9
20190223010035 34 134 1.0 0.0 0.00 0.00 0.23 98 1013.8
20190223005049 34 90 0.0 0.0 0.00 0.00 0.22 98 1013.9
20190223004040 34 117 1.0 0.0 0.00 0.00 0.22 98 1013.9
20190223003033 34 63 1.0 0.0 0.00 0.00 0.21 97 1013.6
20190223002044 35 137 1.0 0.0 0.00 0.00 0.21 97 1013.4
20190223001043 35 159 1.0 0.0 0.00 0.00 0.21 97 1013.4
20190223000045 35 167 1.0 0.0 0.00 0.00 0.21 97 1013.3
20190222235037 34 135 1.0 0.0 0.00 0.00 0.20 98 1013.0
20190222234048 34 79 1.0 0.0 0.00 0.00 0.20 98 1013.0
20190222233040 34 60 0.0 0.0 0.00 0.00 0.20 98 1012.8
20190222232039 34 136 1.0 0.0 0.00 0.00 0.19 98 1012.8
20190222231051 34 68 1.0 0.0 0.00 0.00 0.17 98 1012.8
20190222230032 33 137 1.0 0.0 0.00 0.00 0.15 98 1012.8
20190222225046 33 50 0.0 0.0 0.00 0.00 0.14 98 1012.8
20190222224038 33 29 0.0 0.0 0.00 0.00 0.13 98 1012.8
20190222223034 33 29 0.0 0.0 0.00 0.00 0.12 98 1012.7
20190222222047 33 29 0.0 0.0 0.00 0.00 0.12 98 1012.7
20190222221039 32 27 0.0 0.0 0.00 0.00 0.12 97 1012.7
20190222220041 33 26 0.0 0.0 0.00 0.00 0.12 97 1012.7
20190222215031 33 26 1.0 0.0 0.00 0.00 0.12 95 1012.7
20190222214030 34 21 0.0 0.0 0.00 0.00 0.12 93 1012.8